Provo, UT

10:54 AM MST on December 05, 2019 (GMT -0700)
Provo Municipal

Weather History for KPVU - October, 2019

Change the Weather History Date:

Thursday, October 3, 2019

  Actual Average Record
Temperature  
Mean Temperature 52 °F -  
Max Temperature 71 °F 69 °F 82 °F (2010)
Min Temperature 34 °F 41 °F 33 °F (1999)
Degree Days  
Heating Degree Days 12    
Growing Degree Days 2 (Base 50)    
Moisture  
Dew Point 33 °F    
Average Humidity 52    
Maximum Humidity 82    
Minimum Humidity 22    
Precipitation  
Precipitation 0.00 in - - ()
Sea Level Pressure  
Sea Level Pressure 30.00 in    
Wind  
Wind Speed 3 mph (SSW)    
Max Wind Speed 10 mph    
Max Gust Speed -    
Visibility 10 miles    
Events      
Averages and records for this station are not official NWS values.
T = Trace of Precipitation, MM = Missing Value Source: NWS Daily Summary

Daily Weather History Graph

Daily Weather History Graph

Search for Another Location

Airport or City:

Astronomy

Oct. 03, 2019 Rise Set
Actual Time 7:25 AM MDT 7:06 PM MDT
Civil Twilight 6:57 AM MDT 7:33 PM MDT
Nautical Twilight 6:26 AM MDT 8:04 PM MDT
Astronomical Twilight 5:54 AM MDT 8:36 PM MDT
Moon 1:00 PM MDT (10/3) 10:47 PM MDT (10/3)
Length of Visible Light 12h 35m
Length of Day
11h 41m
Waxing Crescent, 30% of the Moon is Illuminated
Oct 3
Waxing Crescent
Oct 5
First Quarter
Oct 13
Full
Oct 21
Last Quarter
Oct 27
New

Hourly Weather History & Observations

Time (MDT) Temp. Windchill Dew Point Humidity Pressure Visibility Wind Dir Wind Speed Gust Speed Precip Events Conditions
12:56 AM 41.0 °F 39.0 °F 30.9 °F 67% 30.14 in 10.0 mi East 3.5 mph - N/A   Clear
1:56 AM 39.0 °F - 30.9 °F 73% 30.14 in 10.0 mi Calm Calm - N/A   Clear
2:56 AM 37.9 °F - 32.0 °F 79% 30.14 in 10.0 mi Calm Calm - N/A   Clear
3:56 AM 37.9 °F - 28.9 °F 70% 30.12 in 10.0 mi Calm Calm - N/A   Clear
4:56 AM 37.0 °F 34.5 °F 32.0 °F 82% 30.13 in 10.0 mi Variable 3.5 mph - N/A   Clear
5:56 AM 41.0 °F - 30.9 °F 67% 30.11 in 10.0 mi Calm Calm - N/A   Clear
6:56 AM 36.0 °F - 30.0 °F 79% 30.13 in 10.0 mi Calm Calm - N/A   Clear
7:56 AM 34.0 °F - 28.0 °F 79% 30.13 in 10.0 mi Calm Calm - N/A   Clear
8:56 AM 45.0 °F 39.7 °F 28.0 °F 52% 30.11 in 10.0 mi South 10.4 mph - N/A   Clear
9:56 AM 50.0 °F - 28.9 °F 44% 30.09 in 10.0 mi South 5.8 mph - N/A   Clear
10:56 AM 52.0 °F - 28.0 °F 40% 30.09 in 7.0 mi Calm Calm - N/A   Clear
11:56 AM 55.0 °F - 30.9 °F 40% 30.06 in 10.0 mi WSW 5.8 mph - N/A   Clear
12:56 PM 60.1 °F - 28.9 °F 31% 30.01 in 10.0 mi Calm Calm - N/A   Clear
1:56 PM 62.1 °F - 34.0 °F 35% 29.97 in 10.0 mi WSW 5.8 mph - N/A   Clear
2:56 PM 66.9 °F - 35.1 °F 31% 29.91 in 10.0 mi NW 3.5 mph - N/A   Clear
3:56 PM 69.1 °F - 37.9 °F 32% 29.88 in 10.0 mi Variable 4.6 mph - N/A   Clear
4:56 PM 71.1 °F - 32.0 °F 24% 29.87 in 10.0 mi Variable 4.6 mph - N/A   Clear
5:56 PM 70.0 °F - 30.9 °F 24% 29.85 in 10.0 mi NNE 3.5 mph - N/A   Clear
6:56 PM 66.9 °F - 27.0 °F 22% 29.86 in 10.0 mi Variable 4.6 mph - N/A   Partly Cloudy
7:56 PM 57.0 °F - 32.0 °F 39% 29.89 in 10.0 mi Variable 6.9 mph - N/A   Partly Cloudy
8:30 PM 59.0 °F - 42.8 °F 55% 29.92 in 10.0 mi West 9.2 mph - N/A   Clear
8:56 PM 54.0 °F - 43.0 °F 66% 29.88 in 10.0 mi West 9.2 mph - N/A   Clear
9:56 PM 53.1 °F - 42.1 °F 66% 29.88 in 10.0 mi Variable 3.5 mph - N/A   Clear
10:56 PM 52.0 °F - 39.9 °F 63% 29.88 in 10.0 mi ESE 8.1 mph - N/A   Clear
11:56 PM 53.1 °F - 30.9 °F 43% 29.88 in 10.0 mi ESE 8.1 mph - N/A   Clear